Regional Weather Roundup
Issued by NWS

Home | Current Version | Previous Version | Text Only | Print | Product List | Glossary On
Versions: 1 2 3 4 5 6 7 8 9 10 11 12 13 14 15 16 17 18 19 20 21 22 23 24 25 26 27 28 29 30 31 32 33 34 35 36 37 38 39 40 41 42 43 44 45 46 47 48 49 50
000
ASUS43 KDTX 310001
RWRMI
MICHIGAN HOURLY REGIONAL WEATHER ROUNDUP
NATIONAL WEATHER SERVICE DETROIT/PONTIAC MI
800 PM EDT SAT AUG 30 2014

NOTE: "FAIR" INDICATES FEW OR NO CLOUDS BELOW 12,000 FEET WITH NO
SIGNIFICANT WEATHER AND/OR OBSTRUCTION TO VISIBILITY.

MIZ047>049-052>055-059>063-066>070-074>076-081>083-310100-
SOUTHEAST LOWER MICHIGAN

CITY           SKY/WX    TMP DP  RH WIND       PRES   REMARKS
ADRIAN         MOCLDY    79  68  69 SW16G26   29.91S
6HR MIN TEMP:  79; 6HR MAX TEMP:  87;

ALMA           PTCLDY    76  69  78 SW7       29.82S
ANN ARBOR      MOCLDY    79  66  64 SW12      29.88S
BAD AXE        RAIN      71  70  97 S10       29.84S
6HR MIN TEMP:  69; 6HR MAX TEMP:  82;

CARO           LGT RAIN  71  69  94 S6        29.83F
DETROIT CITY   MOCLDY    83  67  58 SW12      29.87S
6HR MIN TEMP:  83; 6HR MAX TEMP:  88;

DETROIT        MOCLDY    80  67  64 S17       29.88S
6HR MIN TEMP:  80; 6HR MAX TEMP:  86;

FLINT          CLOUDY    77  69  76 SW6       29.85R
6HR MIN TEMP:  76; 6HR MAX TEMP:  85; 6HR PCP:  0.04;

GROSSE ILE     PTCLDY    81  70  69 S16       29.87S
HILLSDALE      MOCLDY    80  69  70 SW10G18   29.91R
HOWELL         CLOUDY    76  68  76 S7        29.86S
6HR MIN TEMP:  74; 6HR MAX TEMP:  83;


CITY           SKY/WX    TMP DP  RH WIND       PRES   REMARKS
JACKSON        MOCLDY    76  70  82 SW9       29.89R
6HR MIN TEMP:  76; 6HR MAX TEMP:  85; 6HR PCP: TRACE;

LAMBERTVILLE   MOCLDY    79  68  69 S10G18    29.91S
LANSING        MOCLDY    77  69  76 SW16      29.85R
6HR MIN TEMP:  74; 6HR MAX TEMP:  83; 6HR PCP:  0.16;

LAPEER         MOCLDY    80  65  60 SW13      29.84R
MASON          CLOUDY    76  69  77 S6        29.86S
MONROE         MOCLDY    81  68  65 S13G21    29.88S
MT. CLEMENS    MOCLDY    80  67  66 S12       29.85S
6HR MIN TEMP:  79; 6HR MAX TEMP:  86;

PONTIAC        CLOUDY    80  66  62 S12       29.86S
6HR MIN TEMP:  80; 6HR MAX TEMP:  84;

PORT HOPE        N/A     71  68  90 VRB7      29.81F
6HR MIN TEMP:  71; 6HR MAX TEMP:  82; 6HR PCP:  0.40;

PORT HURON     MOCLDY    79  68  69 S15G21    29.86S
TRI CITIES     MOCLDY    76  70  82 SW9       29.81S
6HR MIN TEMP:  72; 6HR MAX TEMP:  83; 6HR PCP:  0.27;

TROY           MOCLDY    82  64  53 SW14G23   29.88S
SAGINAW HB     MOCLDY    72  72 100 SW7       29.81F
$$
MIZ043>046-050>051-056>058-064>065-071>073-077>080-310100-
SOUTHWEST LOWER MICHIGAN

CITY           SKY/WX    TMP DP  RH WIND       PRES   REMARKS
BATTLE CREEK   CLOUDY    77  67  71 SW13      29.88R
6HR MIN TEMP:  77; 6HR MAX TEMP:  84; 6HR PCP: TRACE;

BENTON HARBOR  CLOUDY    77  69  76 SW8       29.86R
6HR MIN TEMP:  76; 6HR MAX TEMP:  84; 6HR PCP:  0.01;

BIG RAPIDS     CLOUDY    74  67  80 SW12G18   29.82R
6HR MIN TEMP:  74; 6HR MAX TEMP:  79;

COLDWATER      CLOUDY    73  70  91 SW5       29.89F
6HR MIN TEMP:  73; 6HR MAX TEMP:  86;

FREMONT        MOCLDY    73  65  74 SW9       29.82R
HOLLAND        PTCLDY    77  68  73 SW12      29.85S
6HR MIN TEMP:  77; 6HR MAX TEMP:  83;

GRAND RAPIDS   MOCLDY    78  71  79 W14       29.84R
6HR MIN TEMP:  75; 6HR MAX TEMP:  83; 6HR PCP:  0.20;

IONIA          FAIR      77  69  77 SW10      29.83R
KALAMAZOO      LGT RAIN  76  68  76 SW12      29.88R
6HR MIN TEMP:  76; 6HR MAX TEMP:  84; 6HR PCP: TRACE;

LUDINGTON      CLOUDY    69  67  93 SW8       29.80R
6HR MIN TEMP:  69; 6HR MAX TEMP:  77; 6HR PCP:  0.04;

MARSHALL       CLOUDY    74  67  78 SW8       29.88R
MOUNT PLEASANT CLOUDY    77  66  68 SW7       29.81R
6HR MIN TEMP:  74; 6HR MAX TEMP:  83; 6HR PCP:  0.08;

MUSKEGON       MOCLDY    74  65  73 SW12      29.83R
6HR MIN TEMP:  73; 6HR MAX TEMP:  80;

SOUTH HAVEN    MOCLDY    78  69  74 SW7       29.86R
$$
MIZ016>042-310100-
NORTHERN LOWER MICHIGAN

CITY           SKY/WX    TMP DP  RH WIND       PRES   REMARKS
ALPENA         CLOUDY    71  69  93 S6        29.75S
6HR MIN TEMP:  71; 6HR MAX TEMP:  81; 6HR PCP:  0.26;

BEAVER ISLAND  CLOUDY    67  66  97 W5        29.73S FOG
6HR MIN TEMP:  67; 6HR MAX TEMP:  73;

BELLAIRE       CLOUDY    74  65  73 SW10      29.74R
6HR MIN TEMP:  74; 6HR MAX TEMP:  83;

CADILLAC       CLOUDY    69  67  94 SW9G16    29.80S
CHARLEVOIX     CLOUDY    71  68  91 SW13G21   29.77R
6HR MIN TEMP:  71; 6HR MAX TEMP:  80;

FRANKFORT      CLOUDY    69  65  84 W7        29.78R
GAYLORD        MOCLDY    69  67  93 SW10      29.78R
6HR MIN TEMP:  69; 6HR MAX TEMP:  80; 6HR PCP:  0.19;

GRAYLING       CLOUDY    70  69  96 SW6       29.80R
6HR MIN TEMP:  69; 6HR MAX TEMP:  81;

HARBOR SPRINGS CLOUDY    70  67  89 W13G18    29.73S
HOUGHTON LAKE  MOCLDY    72  66  81 SW12G22   29.80R
6HR MIN TEMP:  72; 6HR MAX TEMP:  81; 6HR PCP:  0.03;

MANISTEE       CLOUDY    72  64  78 W8        29.80R
OSCODA         PTCLDY    71  69  94 S8        29.77R
PELLSTON       LGT RAIN  71  67  87 W9        29.74R
6HR MIN TEMP:  71; 6HR MAX TEMP:  82; 6HR PCP:  0.05;

ROGERS CITY    LGT RAIN  68  68 100 MISG      29.76R
TRAVERSE CITY  MOCLDY    74  65  73 W9        29.75R
6HR MIN TEMP:  74; 6HR MAX TEMP:  83; 6HR PCP: TRACE;

$$
MIZ007>008-015-310100-
EASTERN UPPER MICHIGAN

CITY           SKY/WX    TMP DP  RH WIND       PRES   REMARKS
KINROSS        CLOUDY    72  68  88 CALM      29.73S
6HR MIN TEMP:  72; 6HR MAX TEMP:  77;

MACKINAC ISLAN CLOUDY    67  67  98 W6        29.74R
6HR MIN TEMP:  67; 6HR MAX TEMP:  74;

NEWBERRY       CLOUDY    63  62  99 NW10G17   29.73R
S. S. MARIE    MOCLDY    71  66  84 S3        29.71F
6HR MIN TEMP:  68; 6HR MAX TEMP:  77; 6HR PCP:  0.08;

$$
MIZ004>006-011>014-085-310100-
CENTRAL UPPER MICHIGAN

CITY           SKY/WX    TMP DP  RH WIND       PRES   REMARKS
MANISTIQUE     CLOUDY    60  60  99 NW12G18   29.75R
ESCANABA       CLOUDY    63  57  82 NW9       29.78S
6HR MIN TEMP:  63; 6HR MAX TEMP:  70; 6HR PCP:  0.12;

MENOMINEE      CLOUDY    66  63  88 N8        29.79R
6HR MIN TEMP:  66; 6HR MAX TEMP:  73; 6HR PCP:  0.14;

SAWYER-GWINN   CLOUDY    59  57  94 N7G16     29.82R FOG
$$
MIZ001>003-009>011-084-310100-
WESTERN UPPER MICHIGAN

CITY           SKY/WX    TMP DP  RH WIND       PRES   REMARKS
IRON MOUNTAIN  CLOUDY    62  57  83 NW9       29.83R
6HR MIN TEMP:  62; 6HR MAX TEMP:  74; 6HR PCP: TRACE;

HOUGHTON       CLOUDY    60  54  80 N8        29.86R
6HR MIN TEMP:  59; 6HR MAX TEMP:  63;

COPPER HARBOR    N/A     58  54  86 N10       29.84R
6HR MIN TEMP:  57; 6HR MAX TEMP:  58;

$$

ABBREVIATIONS USED IN REMARKS
   TC - TEMPERATURE IN CELSIUS
  WCI - WIND CHILL INDEX
   HX - HEAT INDEX
  VSB - VISIBILITY



USA.gov is the U.S. government's official web portal to all federal, state and local government web resources and services.